NOAA 16 DEB, 42421

Orbit data source: Space-Track

NOAA 16 DEB, 42421 is space debris in SSO originally from a launch on Thu, 21 Sep 2000 UTC launched from the Air Force Western Test Range (AFWTR). Debris objects in space refer to the collection of defunct objects orbiting the Earth. Examples of debris include non-operational satellites, rocket bodies, and fragments generated from explosions, collisions, or faulty payload assembly.

Loading next visibility...
Identifier
42421, 2000-055TR
Orbit
SSO
Country
Flag of USUS
Related business
Manufacturer
Unknown
Mission
Spacecraft
Bus & Motor
Unknown
Mass
Unknown
Launch date (UTC)
2000-09-21 (25 years ago)
Launch vehicle
Unknown
Launch site
Air Force Western Test Range (AFWTR)
Object type
Payload
Rocket body
Debris
Shape & HBR
Unknown shape, 0.1 m
Radar Cross Section
Small (<0.1 m²)

Expand to show TLE details & history
Last TLE update: 1 week ago

TLE from 1 week ago
0 NOAA 16 DEB
1 42421U 00055TR  25339.67465691  .00006700  00000-0  38781-2 0  9991
2 42421  98.8852 315.1604 0081301 279.4203  79.7782 14.07543306463124
Epoch: 2025-12-05T16:11Z
TLE epoch observation values (Epoch: 2025-12-05T16:11:30.357Z)
Latitude
-0.00003°
Longitude
-2.42944°
Altitude
860.691 km
Speed
7.427 km/s
True Right ascension
21h 00m 38s
True Declination
0° 00' 00"
Sunlit
Object was in daylight at epoch
Visualization orbit readout
Latitude
Unknown
Longitude
Unknown
Altitude
Unknown
Speed
Unknown
Apparent Right ascension
Unknown
Apparent Declination
Unknown
Sunlit
N/A
Visualization observer readout
Local Sidereal Time
22:29:33
Azimuth
Unknown
Elevation
Unknown
Doppler factor
Unknown
Orbital elements
Apogee altitude
923.861 km
Perigee altitude
806.087 km
Semi-major axis
7,243.111 km
Eccentricity
0.00813
Inclination
98.8852°
RAAN
315.1604°
Arg. of periapsis
279.4203°
True anomaly
80.69667°
Mean anomaly
79.7782°
Eccentric anomaly
80.23727°
Mean motion
3.52091 °/min
Orbital period
102.25 mins
BSTAR
0.0038781
Loading maneuver chart data...
Computing Atmospheric mass density...
Loading historical data...
Loading historical data...
Loading historical data...
Loading historical data...
Loading historical data...
Loading historical data...
Loading historical data...

Documentation

Showing up to 5 results
|